DMSP 5D-2 F13 DEB, 42281

Orbit data source: Space-Track

DMSP 5D-2 F13 DEB, 42281 is space debris in SSO originally from a launch on Fri, 24 Mar 1995 UTC launched from the Air Force Western Test Range (AFWTR). Debris objects in space refer to the collection of defunct objects orbiting the Earth. Examples of debris include non-operational satellites, rocket bodies, and fragments generated from explosions, collisions, or faulty payload assembly.

Loading next visibility...
Identifier
42281, 1995-015GX
Orbit
SSO
Country
Flag of USUS
Related business
Manufacturer
Unknown
Mission
Spacecraft
Bus & Motor
Unknown
Mass
Unknown
Launch date (UTC)
1995-03-24 (31 years ago)
Launch vehicle
Unknown
Launch site
Air Force Western Test Range (AFWTR)
Object type
Payload
Rocket body
Debris
Shape & HBR
Unknown shape, 0.1 m
Radar Cross Section
Small (<0.1 m²)

Expand to show TLE details & history
Last TLE update: 2 days ago

TLE from 2 days ago
0 DMSP 5D-2 F13 DEB
1 42281U 95015GX  26103.11511258  .00005689  00000-0  11371-2 0  9996
2 42281  98.5437 168.7153 0026374 236.2734 123.5952 14.62067691574291
Epoch: 2026-04-13T02:45Z
TLE epoch observation values (Epoch: 2026-04-13T02:45:45.726Z)
Latitude
-0.00008°
Longitude
-74.03556°
Altitude
699.828 km
Speed
7.501 km/s
True Right ascension
11h 14m 51s
True Declination
0° 00' 00"
Sunlit
Object was in full shadow at epoch
Visualization orbit readout
Latitude
Unknown
Longitude
Unknown
Altitude
Unknown
Speed
Unknown
Apparent Right ascension
Unknown
Apparent Declination
Unknown
Sunlit
N/A
Visualization observer readout
Local Sidereal Time
22:32:24
Azimuth
Unknown
Elevation
Unknown
Doppler factor
Unknown
Orbital elements
Apogee altitude
702.225 km
Perigee altitude
664.975 km
Semi-major axis
7,061.737 km
Eccentricity
0.00264
Inclination
98.5437°
RAAN
168.7153°
Arg. of periapsis
236.2734°
True anomaly
123.84648°
Mean anomaly
123.5952°
Eccentric anomaly
123.72089°
Mean motion
3.65743 °/min
Orbital period
98.43 mins
BSTAR
0.0011371
Loading maneuver chart data...
Computing Atmospheric mass density...
Loading historical data...
Loading historical data...
Loading historical data...
Loading historical data...
Loading historical data...
Loading historical data...
Loading historical data...

Documentation

Showing up to 5 results
|